Weather in Lukino

Russia / Pskov Oblast     56°51′33″N   28°27′51″E
temp.,
°C
wind,
m/s
gust,
m/s
humid.,
%
clouds,
%
prec.,
mm/h
press.,
hPa
HPBL,
m
15 may, sat
sat1500:00+10ese27965 0.1 1007122
03:00+10ese2396100 0.1 100650
06:00+11ese119799 0.7 100534
09:00+13s1194100 2.1 1005316
12:00+15wsw2385100 0.0 1005548
15:00+18wsw346136 0.1 10041309
18:00+17w357489 0.4 1004654
21:00+13w239528 0.7 100446
16 may, sun
sun1600:00+11w269819 0.0 1005127
03:00+10wnw269776 0.0 1007138
06:00+8w24905 0.0 100888
09:00+14w23627 0.0 1009398
12:00+19wsw234739 0.0 10101333
15:00+20ssw2346100 0.0 10092039
18:00+18sw247616 0.8 1009355
21:00+14se229174 1.3 101026
17 may, mon
mon1700:00+12se24953 0.0 101067
03:00+11se2796100 0.0 1010128
06:00+11se3119592 0.0 1009262
09:00+17se4128196 0.0 1009552
12:00+21sse5856100 0.2 10081398
15:00+19sse4771100 1.2 1007895
18:00+14wsw2493100 2.3 1007120
21:00+13nnw3699100 10.3 1005247
18 may, tue
tue1800:00+13nne4998100 7.2 1003342
03:00+13nne4999100 9.9 1000466
06:00+14wsw03100100 6.0 998324
09:00+15sse0497100 6.1 998344
12:00+15sse2696100 0.6 998536
15:00+13w4697100 1.1 999467
18:00+11wsw3896100 0.1 1001526
21:00+11wsw1296100 0.1 100341
19 may, wed
wed1900:00+12nnw119485 0.0 100313
03:00+11n1196100 0.0 100335
06:00+10nne1198100 2.9 100359
09:00+10wnw1299100 12.1 1003129
12:00+11w3797100 2.6 1004578
15:00+9w3996100 3.9 1006562
18:00+13wsw378763 1.0 1005789
21:00+10wsw411915 2.2 1006618